CW0736 Weather Reports


Display with metric or nautical units.
time (UTC)temp
F
wind
direction
speed
MPH
gust
MPH
rain 1hr
in
rain 24hr
in
rain mn
in
humidity
%
barometer
mb
20260906024507 63 17 0.0 0.0 0.00 0.00 0.00 89 1016.4
20260906023007 63 17 0.0 0.0 0.00 0.00 0.00 88 1016.3
20260906021510 64 17 0.0 0.0 0.00 0.00 0.00 88 1016.2
20260906020011 64 17 0.0 0.0 0.00 0.00 0.00 87 1016.2
20260906014623 65 17 0.0 0.0 0.00 0.00 0.00 86 1016.2
20260906013031 65 17 0.0 0.0 0.00 0.00 0.00 86 1016.1
20260906011524 66 17 0.0 0.0 0.00 0.00 0.00 85 1016.0
20260906010032 66 17 0.0 0.0 0.00 0.00 0.00 83 1016.0
20260906004532 67 17 0.0 0.0 0.00 0.00 0.00 82 1016.0
20260906003036 68 17 0.0 1.0 0.00 0.00 0.00 81 1015.7
20260906001534 68 17 0.0 2.0 0.00 0.00 0.00 81 1015.6
20260906000042 69 17 0.0 1.0 0.00 0.00 0.00 79 1015.9
20260905234548 69 17 0.0 3.0 0.00 0.00 0.00 77 1015.8
20260905233044 70 5 0.0 3.0 0.00 0.00 0.00 76 1015.8
20260905231532 70 40 1.0 5.0 0.00 0.00 0.00 75 1015.9
20260905230028 70 14 2.0 8.0 0.00 0.00 0.00 74 1016.0
20260905224600 71 49 2.0 5.0 0.00 0.00 0.00 73 1015.8
20260905223046 71 24 2.0 5.0 0.00 0.00 0.00 72 1015.8
20260905221549 71 355 1.0 5.0 0.00 0.00 0.00 71 1015.6
20260905220053 72 5 1.0 4.0 0.00 0.00 0.00 71 1015.6
20260905214538 72 277 1.0 5.0 0.00 0.00 0.00 68 1015.5
20260905213055 73 17 1.0 6.0 0.00 0.00 0.00 67 1015.3
20260905211551 73 355 0.0 6.0 0.00 0.00 0.00 66 1015.2
20260905210001 74 26 2.0 5.0 0.00 0.00 0.00 64 1014.9
20260905204559 73 5 1.0 6.0 0.00 0.00 0.00 64 1015.2
20260905204502 73 5 0.0 6.0 0.00 0.00 0.00 64 1015.1
20260905203051 73 44 2.0 5.0 0.00 0.00 0.00 64 1015.2
20260905201507 73 329 2.0 6.0 0.00 0.00 0.00 64 1015.2
20260905200045 73 5 1.0 5.0 0.00 0.00 0.00 66 1015.3
20260905194555 73 348 1.0 5.0 0.00 0.00 0.00 66 1015.3
20260905193055 73 12 2.0 8.0 0.00 0.00 0.00 66 1015.4
20260905191538 73 57 1.0 6.0 0.00 0.00 0.00 66 1015.6
20260905190044 73 67 1.0 3.0 0.00 0.00 0.00 68 1015.7
20260905184558 72 345 3.0 8.0 0.00 0.00 0.00 69 1015.7
20260905183014 72 65 2.0 8.0 0.00 0.00 0.00 66 1015.4
20260905181603 72 19 1.0 5.0 0.00 0.00 0.00 68 1015.2
20260905181500 72 11 2.0 5.0 0.00 0.00 0.00 69 1015.3
20260905180051 73 11 0.0 5.0 0.00 0.00 0.00 70 1015.3
20260905174551 73 35 0.0 5.0 0.00 0.00 0.00 69 1015.3
20260905173050 73 333 1.0 5.0 0.00 0.00 0.00 69 1015.6
20260905171551 73 328 1.0 8.0 0.00 0.00 0.00 67 1015.4
20260905170049 72 342 0.0 9.0 0.00 0.00 0.00 69 1015.2
20260905164535 73 350 1.0 4.0 0.00 0.00 0.00 68 1015.2
20260905163027 73 38 0.0 8.0 0.00 0.00 0.00 69 1015.4
20260905161548 73 54 0.0 8.0 0.00 0.00 0.00 67 1015.5
20260905160048 73 82 2.0 6.0 0.00 0.00 0.00 69 1015.4
20260905154550 72 5 1.0 5.0 0.00 0.00 0.00 68 1015.4
20260905153049 72 114 1.0 6.0 0.00 0.00 0.00 72 1015.6
20260905151539 71 326 3.0 5.0 0.00 0.00 0.00 70 1015.7
20260905150056 71 40 3.0 9.0 0.00 0.00 0.00 71 1015.6
20260905144525 71 5 0.0 6.0 0.00 0.00 0.00 79 1015.6
20260905143046 69 5 3.0 6.0 0.00 0.00 0.00 78 1015.5
20260905141549 69 344 1.0 5.0 0.00 0.00 0.00 78 1015.6
20260905140035 69 325 0.0 2.0 0.00 0.00 0.00 79 1015.6
20260905134526 70 15 0.0 4.0 0.00 0.00 0.00 83 1015.6
20260905133018 69 34 1.0 5.0 0.00 0.00 0.00 86 1015.6
20260905131527 68 19 2.0 6.0 0.00 0.00 0.00 90 1015.7
20260905130038 66 346 1.0 3.0 0.00 0.00 0.00 94 1015.8
20260905124530 64 11 0.0 3.0 0.00 0.00 0.00 96 1015.9
20260905123050 63 11 0.0 2.0 0.00 0.00 0.00 97 1015.8
20260905121541 62 11 0.0 1.0 0.00 0.00 0.00 97 1015.6
20260905120043 61 11 0.0 0.0 0.00 0.00 0.00 97 1015.8
20260905114503 60 11 0.0 0.0 0.00 0.00 0.00 96 1015.4
20260905113010 59 11 0.0 0.0 0.00 0.00 0.00 95 1015.2
20260905111504 59 11 0.0 0.0 0.00 0.00 0.00 95 1014.9
20260905110016 59 11 0.0 0.0 0.00 0.00 0.00 95 1015.0
20260905104512 59 11 0.0 0.0 0.00 0.00 0.00 95 1015.1
20260905103019 59 11 0.0 0.0 0.00 0.00 0.00 94 1014.7
20260905101510 59 11 0.0 0.0 0.00 0.00 0.00 94 1014.7
20260905100002 59 10 0.0 0.0 0.00 0.00 0.00 94 1014.5
20260905094544 59 10 0.0 0.0 0.00 0.00 0.00 94 1014.6
20260905093042 60 10 0.0 0.0 0.00 0.00 0.00 94 1014.5
20260905091538 60 10 0.0 0.0 0.00 0.00 0.00 94 1014.4
20260905090034 60 10 0.0 0.0 0.00 0.00 0.00 94 1014.2
20260905084600 60 10 0.0 0.0 0.00 0.00 0.00 94 1014.2
20260905083052 60 10 0.0 0.0 0.00 0.00 0.00 94 1014.1
20260905081550 60 10 0.0 0.0 0.00 0.00 0.00 93 1014.2
20260905080041 61 10 0.0 0.0 0.00 0.00 0.00 93 1014.4
20260905074604 61 10 0.0 0.0 0.00 0.00 0.00 93 1014.5
20260905073104 61 10 0.0 0.0 0.00 0.00 0.00 93 1014.5
20260905071539 62 10 0.0 0.0 0.00 0.00 0.00 93 1014.6
20260905070027 62 10 0.0 0.0 0.00 0.00 0.00 93 1014.6
20260905064504 62 10 0.0 0.0 0.00 0.00 0.00 92 1014.6
20260905063003 63 10 0.0 0.0 0.00 0.00 0.00 92 1014.8
20260905061508 63 10 0.0 0.0 0.00 0.00 0.00 92 1014.8
20260905060010 64 10 0.0 0.0 0.00 0.00 0.00 93 1014.8
20260905054533 64 10 0.0 0.0 0.00 0.00 0.00 92 1014.9
20260905053013 64 10 0.0 0.0 0.00 0.00 0.00 92 1014.9
20260905051520 64 10 0.0 0.0 0.00 0.00 0.00 92 1015.0
20260905050027 64 10 0.0 0.0 0.00 0.00 0.00 92 1014.8
20260905044527 64 10 0.0 0.0 0.00 0.00 0.00 92 1014.8
20260905043013 64 10 0.0 0.0 0.00 0.00 0.00 91 1014.9
20260905041511 64 10 0.0 0.0 0.00 0.00 0.00 91 1014.9
20260905040036 64 10 0.0 0.0 0.00 0.00 0.00 90 1014.9
20260905034534 64 5 0.0 0.0 0.00 0.00 0.00 90 1014.8
20260905033100 64 5 0.0 0.0 0.00 0.00 0.00 89 1014.8
20260905031510 64 5 0.0 0.0 0.00 0.00 0.00 88 1014.8
20260905030010 65 5 0.0 0.0 0.00 0.00 0.00 87 1014.8